Home   Weather   Neubrandenburg   Past weeks

Flag for Germany Past Weather in Neubrandenburg, Mecklenburg-Western Pomerania, Germany — Yesterday and Last 2 Weeks

Now
52 °F

Passing clouds.


Feels Like: 47 °F
Forecast: 39 / 59 °F
Wind: 14 mph from East

Location: Heringsdorf

Current Time: Apr 30, 2017 at 1:31:39 pm

Latest Report: Apr 30, 2017 at 12:50 pm


Visibility: N/A

Pressure: 30.21 "Hg

Humidity: 44%

Dew Point: 30 °F

Location of NeubrandenburgLocation

Past Weather in Neubrandenburg — Graph

°F

Neubrandenburg Temperature Yesterday

Maximum temperature yesterday: 46 °F (at 12:20 pm)
Minimum temperature yesterday: 43 °F (at 9:20 am)
Average temperature yesterday: 44 °F

High & Low Weather Summary for the Past Weeks

 TemperatureHumidityPressure
High55 °F (Apr 21, 4:50 pm)93% (Apr 25, 8:20 am)30.57 "Hg (Apr 25, 8:20 am)
Low36 °F (Apr 20, 8:20 am)28% (Apr 28, 12:20 pm)29.56 "Hg (Apr 25, 8:20 am)
Average46 °F65%30.02 "Hg
* Reported Apr 19 9:20 am — Apr 30 12:20 pm, Neubrandenburg, Weather by CustomWeather, © 2017

Note: Actual official high and low records may vary slightly from our data, if they occured in-between our weather recording intervals... More about our weather records

Advertising

Neubrandenburg Weather History for the Previous 24 Hours

Scroll right to see more
 ConditionsComfort  
Time TempWeatherWind HumidityBarometerVisibility
12:20 pm
Sun, Apr 30
50 °FPassing clouds.13 mph50%30.21 "HgN/A
11:50 am50 °FPassing clouds.10 mph50%30.24 "HgN/A
11:20 am48 °FPassing clouds.12 mph58%30.24 "HgN/A
10:50 am48 °FPassing clouds.10 mph58%30.24 "HgN/A
10:20 am46 °FScattered clouds.12 mph62%30.24 "HgN/A
9:50 am45 °FScattered clouds.10 mph76%30.24 "HgN/A
9:20 am45 °FScattered clouds.10 mph71%30.24 "HgN/A
8:50 am43 °FScattered clouds.12 mph76%30.24 "HgN/A
8:20 am43 °FPassing clouds.12 mph81%30.24 "HgN/A
8:50 pm
Sat, Apr 29
43 °FPassing clouds.8 mph81%30.09 "HgN/A
8:20 pm43 °FPartly sunny.7 mph81%30.09 "HgN/A
7:50 pm43 °FPartly sunny.6 mph81%30.09 "HgN/A
7:20 pm45 °FPartly sunny.5 mph71%30.07 "HgN/A
6:50 pm46 °FBroken clouds.5 mph66%30.07 "HgN/A
6:20 pm46 °FScattered clouds.6 mph66%30.04 "HgN/A
5:50 pm46 °FPartly sunny.5 mph66%30.04 "HgN/A
5:20 pm45 °FPartly sunny.5 mph71%30.04 "HgN/A
4:50 pm45 °FPartly sunny.5 mph71%30.04 "HgN/A
4:20 pm43 °FPartly sunny.6 mph76%30.04 "HgN/A
3:50 pm45 °FPartly sunny.7 mph76%30.04 "HgN/A
3:20 pm43 °FBroken clouds.9 mph81%30.01 "HgN/A
2:20 pm45 °FBroken clouds.7 mph81%30.01 "HgN/A
1:50 pm45 °FLight rain. Partly sunny.7 mph81%30.01 "HgN/A
Weather by CustomWeather, © 2017

See weather overviewHow to use our weather pages